DW8397 Weather Reports


time (UTC)temp
C
wind
direction
speed
KPH
gust
KPH
rain 1hr
cm
rain 24hr
cm
rain mn
cm
humidity
%
barometer
mb
20260905224523 18 323 1.6 11.3 0.00 0.00 0.00 83 1010.5
20260905223010 18 323 0.0 9.7 0.00 0.00 0.00 82 1010.4
20260905221509 18 311 0.0 14.5 0.00 0.00 0.00 81 1010.3
20260905220009 18 61 1.6 9.7 0.00 0.00 0.00 81 1010.4
20260905214508 19 5 6.4 20.9 0.00 0.00 0.00 79 1010.3
20260905213006 19 360 4.8 16.1 0.00 0.00 0.00 79 1010.2
20260905211513 19 21 0.0 16.1 0.00 0.00 0.00 80 1010.0
20260905210007 19 32 9.7 17.7 0.00 0.00 0.00 78 1010.0
20260905204505 19 340 8.0 20.9 0.00 0.00 0.00 78 1010.0
20260905203004 19 338 3.2 11.3 0.00 0.00 0.00 80 1009.7
20260905201504 19 304 3.2 17.7 0.00 0.00 0.00 79 1009.7
20260905200009 20 309 6.4 17.7 0.00 0.00 0.00 78 1009.5
20260905194502 20 306 6.4 16.1 0.00 0.00 0.00 79 1009.7
20260905193002 20 24 1.6 12.9 0.00 0.00 0.00 78 1009.7
20260905191502 20 30 3.2 9.7 0.00 0.00 0.00 78 1009.7
20260905190104 20 330 3.2 14.5 0.00 0.00 0.00 79 1009.7
20260905184600 19 266 0.0 12.9 0.00 0.00 0.00 80 1009.6
20260905183056 20 300 1.6 20.9 0.00 0.00 0.00 78 1009.6
20260905181556 19 321 0.0 14.5 0.00 0.00 0.00 80 1009.5
20260905180103 19 287 4.8 12.9 0.00 0.00 0.00 81 1009.6
20260905174555 19 313 3.2 14.5 0.00 0.00 0.00 80 1009.7
20260905173111 20 350 4.8 12.9 0.00 0.00 0.00 78 1009.7
20260905171554 20 25 0.0 9.7 0.00 0.00 0.00 80 1009.6
20260905170108 18 314 1.6 11.3 0.00 0.00 0.00 79 1009.6
20260905164600 19 355 3.2 14.5 0.00 0.00 0.00 78 1009.6
20260905163050 19 5 6.4 14.5 0.00 0.00 0.00 79 1009.6
20260905161604 19 325 3.2 12.9 0.00 0.00 0.00 80 1009.6
20260905160049 19 355 1.6 17.7 0.00 0.00 0.00 79 1009.8
20260905154548 19 317 4.8 16.1 0.00 0.00 0.00 81 1009.8
20260905153045 18 333 0.0 14.5 0.00 0.00 0.00 80 1009.8
20260905151545 18 350 0.0 6.4 0.00 0.00 0.00 79 1009.8
20260905150044 18 317 0.0 0.0 0.00 0.00 0.00 79 1009.7
20260905144542 18 340 0.0 0.0 0.00 0.00 0.00 80 1009.7
20260905143040 18 24 0.0 0.0 0.00 0.00 0.00 82 1009.7
20260905141537 17 318 0.0 1.6 0.00 0.00 0.00 83 1009.9
20260905140037 18 38 0.0 14.5 0.00 0.00 0.00 85 1009.9
20260905134535 17 306 0.0 12.9 0.00 0.00 0.00 86 1009.9
20260905133036 17 334 0.0 8.0 0.00 0.00 0.00 86 1009.9
20260905131529 17 349 1.6 11.3 0.00 0.00 0.00 87 1009.8
20260905130029 17 298 0.0 11.3 0.00 0.00 0.00 87 1009.7
20260905124524 16 355 0.0 0.0 0.00 0.00 0.00 88 1009.6
20260905123023 16 321 0.0 0.0 0.00 0.00 0.00 88 1009.5
20260905121523 15 360 0.0 0.0 0.00 0.00 0.00 88 1009.5
20260905120020 15 26 0.0 0.0 0.00 0.00 0.00 88 1009.4
20260905114519 14 344 0.0 0.0 0.00 0.00 0.00 88 1009.2
20260905113018 14 355 0.0 0.0 0.00 0.00 0.00 88 1009.2
20260905111520 14 317 0.0 0.0 0.00 0.00 0.00 88 1009.0
20260905110017 14 292 0.0 0.0 0.00 0.00 0.00 88 1009.0
20260905104514 14 264 0.0 0.0 0.00 0.03 0.00 88 1008.9
20260905103015 13 326 0.0 0.0 0.00 0.03 0.00 89 1008.8
20260905101512 13 334 0.0 0.0 0.00 0.03 0.00 89 1008.8
20260905100017 14 271 0.0 0.0 0.00 0.03 0.00 88 1008.8
20260905094509 14 336 0.0 0.0 0.00 0.03 0.00 89 1008.6
20260905093008 14 360 0.0 17.7 0.00 0.03 0.00 89 1008.5
20260905091511 14 309 0.0 0.0 0.00 0.03 0.00 88 1008.5
20260905090010 14 311 0.0 17.7 0.00 0.03 0.00 88 1008.4
20260905084506 14 355 0.0 12.9 0.00 0.03 0.00 88 1008.3
20260905083006 14 314 4.8 17.7 0.00 0.03 0.00 88 1008.2
20260905081504 14 317 1.6 17.7 0.00 0.03 0.00 89 1008.3
20260905080003 14 319 0.0 0.0 0.00 0.03 0.00 88 1008.4
20260905074503 14 348 0.0 0.0 0.00 0.03 0.00 88 1008.5
20260905073101 15 28 0.0 0.0 0.00 0.03 0.00 88 1008.5
20260905071603 15 347 0.0 0.0 0.00 0.03 0.00 88 1008.6
20260905070059 15 315 0.0 0.0 0.00 0.03 0.00 88 1008.7
20260905064612 15 335 0.0 0.0 0.00 0.03 0.00 88 1008.7
20260905063054 15 335 0.0 0.0 0.00 0.03 0.00 88 1008.9
20260905061552 15 339 0.0 0.0 0.00 0.03 0.00 88 1009.0
20260905060050 16 336 0.0 0.0 0.00 0.03 0.00 88 1009.0
20260905054632 16 321 0.0 0.0 0.00 0.03 0.00 87 1009.1
20260905053046 16 321 0.0 0.0 0.00 0.03 0.00 86 1009.1
20260905051542 17 296 0.0 0.0 0.00 0.03 0.00 86 1009.2
20260905050042 17 346 3.2 12.9 0.00 0.03 0.00 86 1009.2
20260905044539 17 307 0.0 9.7 0.00 0.03 0.00 85 1009.3
20260905043040 17 338 4.8 11.3 0.00 0.03 0.00 85 1009.2
20260905041539 17 360 1.6 16.1 0.00 0.03 0.00 86 1009.2
20260905040038 17 309 3.2 14.5 0.00 0.03 0.00 86 1009.3
20260905034536 17 327 0.0 0.0 0.00 0.03 0.03 87 1009.3
20260905033039 17 11 0.0 0.0 0.00 0.03 0.03 87 1009.3
20260905031538 16 17 0.0 0.0 0.00 0.03 0.03 87 1009.2
20260905030037 17 302 0.0 0.0 0.00 0.03 0.03 87 1009.5
20260905024538 17 321 0.0 0.0 0.00 0.03 0.03 87 1009.4
20260905023034 17 350 0.0 0.0 0.00 0.03 0.03 87 1009.6
20260905021534 17 36 0.0 0.0 0.00 0.03 0.03 87 1009.8
20260905020037 17 36 0.0 0.0 0.00 0.03 0.03 87 1009.8
20260905014532 17 36 0.0 0.0 0.00 0.03 0.03 87 1009.9
20260905013032 17 36 0.0 0.0 0.00 0.03 0.03 87 1009.9
20260905011530 17 138 0.0 0.0 0.00 0.03 0.03 86 1009.9
20260905010037 17 138 0.0 0.0 0.00 0.03 0.03 86 1009.7
20260905004529 17 355 0.0 0.0 0.00 0.03 0.03 86 1009.6
20260905003028 17 355 0.0 0.0 0.00 0.03 0.03 85 1009.6
20260905001529 17 36 0.0 0.0 0.00 0.03 0.03 85 1009.4
20260905000034 17 323 0.0 0.0 0.00 0.03 0.03 84 1009.3
20260904234528 18 322 0.0 0.0 0.00 0.03 0.03 83 1009.1
20260904233028 18 322 0.0 0.0 0.00 0.03 0.03 81 1009.1
20260904231527 19 19 0.0 0.0 0.00 0.03 0.03 80 1009.1
20260904230031 19 341 0.0 0.0 0.00 0.03 0.03 78 1009.0